Location: Chaumontel
(49.1247°N, 2.4324°E)
Time: 03:59:35
(UTC+00:00)

ACS3 Solar Sail - Visible Passes

Search period start: 20 May 2026 00:00
Search period end: 30 May 2026 00:00
Orbit: 902 x 937 km, 97.2° (Epoch: 19 May)

Date Brightness Start Highest point End Pass type
(mag) Time Alt. Az. Time Alt. Az. Time Alt. Az.
20 May 2.2 00:10:24 10° NNE 00:16:08 49° E 00:18:38 31° SSE visible
20 May 2.8 01:53:05 10° N 01:58:14 32° WNW 02:02:05 16° WSW visible
21 May 2.0 00:18:41 10° NNE 00:24:32 58° E 00:27:08 33° SSE visible
21 May 3.0 02:01:34 10° N 02:06:30 28° WNW 02:10:36 14° WSW visible
21 May 3.8 22:47:37 10° ENE 22:49:29 11° E 22:51:21 10° E visible
22 May 1.8 00:27:00 10° NNE 00:32:54 67° E 00:35:38 33° S visible
22 May 3.2 02:10:05 10° N 02:14:44 25° WNW 02:19:06 11° WSW visible
22 May 3.7 22:55:04 10° NE 22:58:00 14° E 23:00:40 11° ESE visible
23 May 1.7 00:35:20 10° NNE 00:41:17 78° ESE 00:44:08 33° S visible
23 May 3.3 02:18:38 10° N 02:22:59 22° WNW 02:27:20 10° WSW visible
23 May 3.6 23:02:53 10° NE 23:06:30 16° E 23:09:09 13° ESE visible
24 May 1.7 00:43:40 10° NNE 00:49:38 90° E 00:52:37 32° SSW visible
24 May 3.5 02:27:12 10° NNW 02:31:12 19° WNW 02:35:11 10° W visible
24 May 3.4 23:10:50 10° NE 23:15:00 19° E 23:17:39 15° ESE visible
25 May 1.7 00:52:02 10° N 00:57:58 79° WNW 01:01:07 30° SSW visible
25 May 3.6 02:35:50 10° NNW 02:39:23 17° NW 02:42:58 10° W visible
25 May 3.3 23:18:53 10° NE 23:23:28 23° E 23:26:08 17° ESE visible
26 May 1.8 01:00:24 10° N 01:06:19 68° WNW 01:09:36 27° SSW visible
26 May 3.7 02:44:32 10° NNW 02:47:35 15° NW 02:50:38 10° W visible
26 May 3.1 23:27:00 10° NNE 23:31:55 26° E 23:34:37 19° SE visible
27 May 2.0 01:08:48 10° N 01:14:37 59° WNW 01:18:05 25° SW visible
27 May 3.8 02:53:21 10° NNW 02:55:45 13° NW 02:58:09 10° WNW visible
27 May 2.9 23:35:10 10° NNE 23:40:22 31° E 23:43:06 22° SE visible
28 May 2.2 01:17:12 10° N 01:22:55 51° WNW 01:26:34 22° SW visible
28 May 3.9 03:02:29 10° NW 03:03:55 11° NW 03:05:21 10° WNW visible
28 May 2.7 23:43:21 10° NNE 23:48:48 36° E 23:51:34 24° SE visible
29 May 2.4 01:25:37 10° N 01:31:12 44° WNW 01:35:02 19° SW visible
